Voltar ao catálogo

STARLINK-35972

AtivoComunicaçõesVLEO
NORAD 66638·PAYLOAD·🇺🇸 United States

Lançado Nov 23, 2025 de Vandenberg Space Force Base

Loading…

Próximas Passagens (próximas 24 horas)

TLE

AtualizadoSource: CelesTrak SupGP

Época: Sep 15, 2026, 02:36 UTC

1 66638C 25271X   26258.10881944  .00066044  00000+0  19512-2 0  2581
2 66638  53.1595 338.7382 0001136  88.2318  27.3448 15.34359983    13

Acompanhe STARLINK-35972 em tempo real com AllMySat

Download on the App Store